Flag for Germany Weather past 2 weeks in Walsrode, Lower Saxony, Germany

Now
45 °F

Fog.


Feels Like: 45 °F
Forecast: 41 / 48 °F
Wind: 2 mph from Southeast

Location: Fassberg

Current Time: Apr 26, 2015 at 7:07:08 AM

Latest Report: Apr 26, 2015 at 6:20 AM


Visibility: 0 mi

Pressure: 29.74 "Hg

Humidity: 93%

Dew point: 43 °F

Location of WalsrodeLocation

Historic Weather in Walsrode — Graph

°F

Walsrode temperature yesterday

Maximum temperature yesterday: 59 °F (at 11:20 AM)
Minimum temperature yesterday: 43 °F (at 12:20 AM)
Average temperature yesterday: 52 °F

Past Weeks' High & Low Weather Summary

 TemperatureHumidityPressure
High72 °F (Apr 15, 3:20 PM)100% (Apr 17, 5:20 AM)30.39 "Hg (Apr 17, 5:20 AM)
Low28 °F (Apr 14, 3:20 AM)27% (Apr 21, 5:20 PM)29.71 "Hg (Apr 25, 5:20 PM)
Average49 °F66%30.13 "Hg
* Reported Apr 11 5:20 AM — Apr 26 5:20 AM, Walsrode, Weather by CustomWeather, © 2015

Note: Actual official high and low records may vary slightly from our data, if they occured in-between our weather recording intervals... More about our weather records

Advertising

Walsrode weather history for previous 24 hours

 ConditionsComfort  
Time TempWeatherWind HumidityBarometerVisibility
5:20 AM
Sun, Apr 26
48 °FFog.3 mph100%29.71 "Hg0 mi
4:20 AM48 °FFog.5 mph100%29.74 "Hg0 mi
3:20 AM50 °FFog.6 mph94%29.74 "Hg0 mi
2:20 AM50 °FFog.6 mph100%29.74 "Hg1 mi
1:20 AM52 °FFog.7 mph94%29.74 "Hg2 mi
12:20 AM52 °FFog.7 mph100%29.74 "Hg2 mi
11:20 PM
Sat, Apr 25
54 °FLight rain. Fog.10 mph94%29.74 "Hg1 mi
10:20 PM54 °FFog.6 mph88%29.74 "Hg2 mi
9:20 PM54 °FFog.6 mph94%29.74 "Hg2 mi
8:20 PM54 °FFog.5 mph94%29.71 "Hg2 mi
7:20 PM55 °FFog.6 mph88%29.71 "Hg2 mi
6:20 PM55 °FDrizzle. Fog.7 mph88%29.74 "Hg2 mi
5:20 PM55 °FDrizzle. Fog.7 mph94%29.71 "Hg2 mi
4:20 PM55 °FDrizzle. Fog.7 mph88%29.74 "Hg2 mi
3:20 PM55 °FDrizzle. Fog.9 mph88%29.74 "Hg3 mi
2:20 PM57 °FDrizzle. Fog.6 mph88%29.74 "Hg3 mi
1:20 PM55 °FDrizzle. Fog.5 mph82%29.74 "Hg3 mi
12:20 PM57 °FDrizzle. Broken clouds.13 mph77%29.77 "Hg3 mi
11:20 AM59 °FBroken clouds.8 mph68%29.74 "Hg6 mi
10:20 AM55 °FPartly sunny.7 mph77%29.77 "HgN/A
9:20 AM54 °FPartly sunny.6 mph77%29.74 "HgN/A
8:20 AM52 °FLight rain. Partly sunny.6 mph77%29.77 "HgN/A
7:20 AM54 °FLight rain. Broken clouds.9 mph63%29.74 "HgN/A
Weather by CustomWeather, © 2015

See weather overviewHow to use our weather pages